Starlink 11670

operational
NORAD ID: 64237 Int'l Des: 2025-119 Owner: SPXS Country: US Constellation: starlink
LEOCIRCULAR

Starlink 11670について

説明を読み込み中...

リアルタイム位置

3D地球を読み込み中...

次回通過

高度履歴

Altitude vs Time

uPlot chart will show altitude changes over time

軌道要素

1 64237U 25119E 25308.12645367 .00332662 00000-0 24661-2 0 9995
2 64237 43.0001 246.2567 0001659 235.2978 124.7733 15.71104822 25499
Epoch: Nov 4, 2025 • Age: 8 hours

現在のステータス

高度 357.2 km
速度 7.70 km/s
衛星直下点 35.84°N, 162.24°E
打ち上げ日 Jun 3, 2025
運用期間 0.4 years
タイプ internet

技術仕様

分類 Payload
質量 960.00 kg
乾燥質量 910.00 kg
総質量 960.00 kg
長さ 0.30 m
直径 4.10 m
スパン 29.00 m
形状 Box + pan
製造者 SPXS
バスタイプ Starlink V2MD
フェーズステータス In Orbit
所有者/国 SPXS/US

大規模コンステレーション

Loading constellations...